Wind_Speed
10 9 7 5 5 4 4 4 5 5 5 5 5 6 5 5 4 3 3 3 3 2 1 1 2 2 3 4 4 5 5 6 6 6 7 7 7 7 8 9 9 9 10 11 11 11 11 11 11
12 10 9 7 6 5 5 5 5 5 5 6 5 5 5 5 5 4 4 3 2 1 1 1 2 2 3 4 4 5 6 6 6 6 7 7 7 7 8 9 10 10 11 11 11 12 11 11 11
14 12 10 9 7 6 6 5 5 5 5 5 5 5 5 5 5 5 4 3 2 1 0 1 1 2 3 4 5 5 6 6 6 7 7 7 7 8 8 9 10 11 11 11 11 11 11 12 12
14 13 12 11 10 7 6 5 6 5 5 4 4 5 4 4 5 5 4 3 2 1 1 1 1 1 3 4 5 5 5 6 6 7 7 8 8 8 9 10 11 11 12 12 12 12 12 12 12
16 14 14 13 11 9 8 7 6 6 5 4 4 4 4 3 4 4 3 2 1 1 0 1 0 2 3 4 5 5 5 6 6 7 8 9 9 9 10 11 12 12 13 13 13 13 13 13 12
17 16 15 13 12 10 9 8 7 6 5 4 4 4 4 3 3 3 2 1 0 0 0 1 1 3 4 4 5 5 5 6 7 8 8 8 9 10 11 12 12 13 13 13 13 13 13 13 12
18 17 15 14 13 11 10 10 8 6 5 4 4 4 4 3 3 3 2 1 1 1 1 1 2 3 4 4 5 5 5 6 7 8 9 9 10 10 11 12 12 13 13 13 13 13 13 13 12
19 17 16 15 14 13 12 11 9 7 5 5 4 3 3 3 3 2 2 2 2 1 1 2 3 4 4 4 5 5 6 7 8 8 9 10 11 11 11 12 12 13 13 13 13 13 13 13 13
19 18 17 16 14 13 13 11 9 7 6 6 5 4 3 3 3 2 2 3 2 2 2 3 4 4 4 4 5 6 7 7 8 9 9 10 11 11 12 12 13 13 13 13 13 13 13 13 13
19 18 17 16 14 13 12 11 9 8 7 6 5 5 4 3 3 3 3 3 3 2 2 3 3 4 5 5 5 6 7 7 8 9 10 10 11 12 12 13 13 13 13 13 14 13 13 12 13
19 17 17 16 14 13 11 9 8 8 6 6 5 5 5 4 4 2 3 4 3 3 3 3 4 4 5 5 6 6 7 8 8 9 10 11 11 12 12 13 13 13 13 14 14 13 13 13 13
18 17 16 15 14 13 11 9 8 7 6 6 6 6 5 5 4 3 3 4 4 3 3 4 4 5 5 5 6 7 7 8 9 10 10 11 12 12 13 13 13 14 14 14 14 13 13 13 13
18 17 16 14 14 13 11 9 8 6 6 7 7 6 6 5 4 4 3 4 4 3 3 3 4 4 5 6 6 7 8 9 9 10 11 12 12 13 13 14 14 15 15 15 14 13 13 13 13
18 16 15 13 14 13 11 9 8 7 7 7 8 6 6 5 5 4 3 3 4 3 3 3 3 3 4 5 6 6 8 9 10 11 12 12 13 13 14 14 15 15 16 16 15 14 14 13 13
18 17 15 13 13 11 11 10 8 8 8 7 7 7 6 5 5 4 4 4 4 3 3 3 2 3 4 5 6 7 8 9 10 11 11 12 13 14 14 15 15 16 16 16 16 15 15 14 13
17 17 15 13 13 12 11 10 9 9 8 8 7 7 6 6 6 5 5 5 4 4 3 3 2 2 3 5 6 7 8 9 10 10 11 12 13 14 15 15 16 16 17 17 17 16 15 14 13
16 16 15 13 12 11 10 10 9 9 9 9 8 7 7 7 7 7 6 5 5 4 3 2 1 2 3 5 6 7 8 9 10 11 12 13 13 14 15 15 16 16 17 17 17 17 16 14 14
16 15 14 12 11 11 11 10 10 10 9 9 9 8 8 8 8 7 6 5 5 4 3 2 2 2 4 5 6 7 8 9 10 11 12 12 13 14 14 15 16 17 17 18 18 17 16 15 14
14 14 13 12 11 11 11 10 10 10 10 9 9 8 8 8 8 8 7 6 5 4 4 2 2 3 4 5 6 7 8 9 10 11 12 13 13 14 15 16 17 17 18 18 18 17 17 16 15
14 13 12 12 11 10 10 9 10 10 9 9 9 9 8 8 8 8 7 6 6 5 4 3 2 3 4 5 6 7 8 9 11 12 13 14 14 15 16 17 17 18 18 18 18 17 17 17 16
14 13 12 11 11 10 9 9 9 10 9 10 9 9 9 8 8 9 7 6 6 5 4 3 3 3 4 5 6 7 8 10 11 12 14 14 15 16 17 17 18 18 18 19 18 18 17 17 16
13 12 12 11 11 10 10 9 9 10 9 9 9 9 9 8 9 8 8 7 6 6 4 4 3 4 4 5 6 7 9 10 12 13 14 15 16 17 17 18 18 18 19 19 19 19 18 18 17
12 12 12 12 11 10 9 8 9 10 10 9 9 9 8 9 9 8 7 7 6 6 5 4 4 4 5 6 7 8 9 11 12 13 15 16 17 18 18 19 19 19 20 20 20 20 19 18 17
12 11 11 11 10 9 9 8 8 9 9 10 9 9 8 9 8 8 8 7 6 6 5 4 4 5 6 6 7 8 10 12 13 14 15 17 18 19 19 20 20 20 21 21 21 20 19 18 17
11 11 10 10 9 8 8 7 7 8 9 9 9 9 8 9 8 8 8 7 6 6 5 5 5 6 7 7 8 10 11 12 14 15 16 17 18 19 20 21 21 21 22 22 21 21 20 19 18
11 9 9 9 8 7 8 7 7 7 8 8 8 8 8 8 8 8 8 7 7 6 6 6 7 7 8 9 10 11 12 13 15 16 17 18 19 20 20 21 22 22 22 22 22 21 20 20 19
11 10 9 8 8 7 7 7 7 7 8 7 7 7 7 8 8 8 7 7 7 7 7 7 8 9 9 10 11 12 13 15 16 17 18 19 20 21 22 22 23 23 23 23 23 22 22 21 19
11 10 10 9 8 8 7 7 7 8 7 7 7 7 7 7 7 7 7 8 8 8 9 9 10 10 11 12 13 14 15 16 17 17 19 20 21 22 23 23 24 24 24 24 24 24 23 22 21
11 11 10 9 9 8 7 7 7 8 8 8 8 7 8 8 8 8 8 8 9 9 10 11 11 12 12 13 14 15 16 17 18 19 20 21 22 23 24 25 26 26 25 25 25 25 24 23 23
12 12 11 10 10 9 8 7 8 8 8 8 8 8 8 9 9 9 9 9 10 10 11 12 12 13 14 15 16 17 18 19 19 20 21 22 23 24 25 26 27 27 27 27 27 27 26 26 25
Wind_Direction
218 220 223 216 207 190 164 145 142 144 150 153 154 143 147 139 132 134 137 132 121 92 65 59 48 14 358 355 357 353 347 341 337 338 338 337 334 329 326 327 326 322 316 312 308 305 300 297 294
216 218 216 209 202 193 174 149 144 145 142 147 152 145 146 135 122 127 131 129 125 113 79 11 18 1 5 2 358 353 349 345 343 342 341 337 333 329 328 325 323 320 317 313 309 305 301 298 294
215 214 212 205 202 195 177 163 158 155 145 144 151 152 143 132 123 120 122 119 113 116 75 5 360 9 3 353 350 350 348 346 346 344 342 335 332 330 327 325 322 319 316 312 309 305 301 298 296
213 214 211 209 205 201 188 182 176 167 159 147 142 150 144 139 132 124 119 114 117 125 106 40 20 5 0 352 348 348 347 345 344 342 339 334 330 330 329 328 323 319 316 310 305 302 300 298 297
212 212 210 207 205 205 202 197 185 182 173 158 146 139 138 148 135 126 118 113 113 126 85 3 354 350 352 349 347 350 349 346 343 337 335 333 329 330 329 326 323 319 314 309 304 301 299 296 296
211 211 208 204 205 208 206 199 195 188 181 162 152 151 144 143 150 138 137 130 151 216 339 323 330 345 349 346 343 344 341 341 338 336 336 335 332 328 327 327 324 321 317 312 305 301 298 297 295
209 208 205 204 204 208 205 200 199 195 187 178 172 161 153 156 162 165 166 179 229 262 310 327 330 334 338 339 338 335 335 337 337 335 333 331 328 327 326 326 325 323 320 314 308 302 298 297 295
208 207 206 205 207 212 206 199 201 204 201 190 186 188 165 161 174 182 194 212 225 242 298 318 324 325 331 334 332 334 336 336 336 335 333 330 328 328 327 326 325 323 319 315 310 305 300 297 293
205 207 207 207 209 209 208 205 205 203 202 199 192 191 189 184 189 202 218 223 231 250 290 320 326 330 328 331 331 333 336 336 334 333 333 332 332 331 329 328 326 324 322 319 315 310 304 298 294
202 203 204 204 205 208 204 203 200 199 200 199 198 193 200 209 208 214 232 246 248 258 284 305 313 322 325 328 330 332 334 335 334 334 335 334 333 332 330 329 328 327 325 322 318 314 308 302 297
200 202 202 201 202 200 198 199 198 196 197 197 200 204 209 215 209 221 244 252 255 268 285 293 302 316 321 325 327 329 331 334 335 336 336 336 335 335 333 332 331 330 328 325 321 317 312 307 301
198 198 195 196 198 197 196 199 200 196 200 202 207 210 209 206 219 247 262 255 253 272 294 296 302 314 322 323 325 327 330 334 337 338 337 337 337 337 337 337 335 333 331 328 325 321 316 310 305
195 194 193 195 196 195 194 199 202 200 202 204 207 208 209 206 210 223 247 247 236 255 278 289 302 315 323 325 328 331 334 336 339 339 338 336 337 338 339 339 338 337 336 333 330 325 321 315 309
192 193 192 193 196 196 196 198 200 201 202 202 202 204 202 200 207 218 222 232 233 245 262 266 287 303 320 330 334 339 340 340 339 338 337 337 338 339 339 340 341 342 341 338 334 328 324 320 315
188 189 192 195 190 191 193 197 203 200 202 202 202 204 203 206 211 209 211 222 225 233 240 252 273 305 324 334 337 339 340 339 339 340 341 343 343 343 343 343 343 344 344 342 339 334 330 325 320
188 190 191 194 195 196 195 191 195 198 203 204 200 201 202 204 208 209 212 215 222 229 234 244 276 325 339 338 338 338 338 339 340 342 342 344 345 346 346 347 346 345 344 342 341 338 334 330 325
185 182 184 191 198 199 192 187 191 197 201 201 199 198 200 204 203 206 209 214 218 218 222 230 269 316 331 335 341 343 341 340 340 341 341 343 345 345 345 346 345 344 343 343 342 341 337 332 329
182 182 183 190 198 201 198 191 191 197 200 199 199 198 198 200 201 204 207 210 211 213 215 223 269 305 325 336 342 344 345 345 344 344 344 343 344 345 344 344 343 343 343 343 343 342 339 336 332
182 184 187 193 197 202 198 193 194 197 201 202 202 202 198 201 205 206 207 208 215 220 219 232 273 306 328 341 347 347 347 349 350 350 349 348 347 347 345 343 343 342 343 344 344 342 341 339 336
182 186 189 195 197 200 202 199 198 203 208 207 206 206 208 209 209 208 209 213 219 220 222 242 281 310 326 338 344 345 346 349 351 351 351 350 349 346 344 343 342 341 342 342 343 343 342 340 336
183 187 188 193 196 200 207 205 203 206 211 209 208 211 213 208 204 205 209 215 220 220 228 252 282 307 324 334 340 343 345 348 350 349 348 348 347 346 344 343 343 343 344 344 343 342 342 341 338
177 183 187 192 197 203 207 207 209 211 212 210 207 206 207 207 205 208 212 217 220 224 238 261 283 305 319 326 332 339 343 346 347 346 346 347 347 346 345 345 345 345 344 344 344 342 341 339 337
177 182 188 194 202 203 204 210 211 210 210 210 209 204 206 207 208 209 211 215 222 228 241 257 276 297 307 315 325 334 339 343 344 344 345 345 346 345 345 345 345 344 344 343 343 342 340 339 337
180 181 187 197 205 208 209 213 206 209 213 216 215 208 207 208 208 209 212 217 224 230 242 260 277 294 306 316 325 332 335 338 340 341 341 342 343 343 343 343 343 343 342 341 340 339 338 336 335
183 187 193 200 205 211 215 218 213 214 213 215 213 212 211 212 213 212 216 220 224 232 248 266 285 298 306 313 320 326 329 331 334 336 337 339 340 340 341 341 340 340 339 339 337 336 334 333 330
188 195 204 208 211 218 222 224 219 219 217 215 214 215 217 219 218 218 222 224 229 242 259 274 287 296 302 307 312 318 322 325 328 330 332 334 335 335 337 338 337 337 336 335 334 333 331 329 327
195 201 207 215 216 226 229 223 218 221 219 218 221 220 217 218 219 222 226 231 240 253 264 276 286 292 298 303 307 312 317 321 323 325 327 330 331 332 333 334 334 333 332 331 330 329 327 325 323
202 208 218 223 228 235 230 223 219 221 220 221 227 227 225 227 230 234 238 242 250 260 268 277 286 290 293 298 303 308 313 317 320 322 325 326 327 328 329 330 330 330 329 327 326 325 323 321 318
211 219 227 233 234 236 226 218 223 226 227 230 233 240 241 239 242 246 249 253 261 266 272 278 286 289 292 297 303 307 310 314 316 319 321 322 323 325 325 326 327 326 325 324 323 322 321 318 315
218 224 232 236 234 236 233 219 225 230 233 236 242 250 253 250 252 254 257 260 266 270 274 280 286 291 295 298 302 305 308 310 313 314 316 318 320 321 322 323 324 323 323 323 322 321 320 317 314
Height
5864 5865 5867 5869 5870 5870 5870 5871 5871 5872 5873 5874 5875 5876 5877 5878 5880 5882 5881 5880 5881 5881 5881 5881 5881 5881 5881 5881 5880 5880 5879 5878 5878 5877 5876 5876 5875 5875 5874 5873 5873 5872 5871 5871 5870 5870 5870 5870 5870
5863 5865 5867 5869 5869 5870 5871 5871 5872 5873 5874 5875 5875 5876 5877 5878 5878 5879 5880 5880 5881 5881 5882 5882 5881 5881 5881 5881 5880 5880 5879 5878 5877 5877 5876 5875 5874 5874 5873 5872 5872 5871 5870 5869 5869 5868 5868 5868 5868
5862 5864 5867 5868 5869 5870 5872 5872 5873 5874 5875 5875 5876 5877 5878 5878 5879 5879 5880 5881 5881 5882 5882 5882 5882 5882 5881 5881 5880 5879 5879 5878 5877 5876 5875 5875 5874 5873 5872 5872 5871 5870 5869 5868 5867 5866 5866 5866 5866
5861 5864 5866 5868 5869 5870 5872 5872 5873 5874 5875 5876 5877 5877 5877 5879 5879 5880 5880 5881 5882 5882 5882 5882 5882 5882 5881 5881 5880 5879 5879 5878 5877 5876 5875 5874 5874 5873 5872 5870 5870 5868 5867 5866 5865 5865 5864 5864 5863
5859 5862 5865 5866 5868 5870 5871 5872 5873 5874 5875 5876 5877 5877 5877 5879 5879 5880 5881 5881 5882 5882 5882 5882 5882 5881 5881 5880 5880 5879 5878 5878 5877 5876 5875 5874 5873 5872 5871 5870 5868 5867 5866 5865 5864 5863 5862 5861 5861
5858 5860 5863 5865 5867 5868 5870 5872 5874 5875 5875 5876 5877 5877 5878 5879 5880 5880 5881 5881 5882 5882 5882 5882 5882 5881 5881 5880 5880 5879 5878 5878 5877 5876 5874 5873 5872 5871 5870 5868 5867 5866 5864 5863 5862 5861 5860 5859 5859
5856 5859 5861 5864 5866 5868 5870 5872 5873 5874 5875 5876 5877 5877 5878 5879 5880 5880 5881 5881 5882 5882 5882 5882 5882 5881 5881 5880 5880 5879 5878 5877 5876 5875 5874 5873 5872 5870 5869 5867 5866 5864 5862 5861 5859 5858 5857 5857 5856
5854 5858 5860 5862 5864 5867 5869 5871 5872 5874 5875 5876 5877 5877 5878 5879 5880 5880 5881 5881 5882 5882 5882 5882 5882 5881 5881 5880 5879 5879 5878 5877 5876 5875 5873 5872 5871 5869 5867 5866 5864 5862 5861 5859 5857 5856 5855 5854 5854
5852 5856 5858 5861 5863 5866 5868 5870 5872 5873 5874 5875 5876 5877 5878 5879 5879 5880 5880 5881 5881 5881 5882 5881 5881 5881 5880 5880 5879 5878 5878 5876 5875 5874 5873 5871 5870 5868 5866 5865 5863 5861 5859 5857 5855 5854 5853 5852 5851
5850 5854 5856 5860 5862 5864 5866 5869 5870 5872 5873 5874 5876 5877 5877 5878 5879 5880 5880 5880 5881 5881 5881 5881 5881 5880 5880 5879 5879 5878 5877 5876 5875 5873 5872 5871 5869 5867 5865 5863 5861 5859 5857 5855 5854 5852 5850 5849 5848
5848 5852 5855 5858 5861 5863 5865 5868 5870 5871 5873 5874 5875 5876 5877 5877 5878 5879 5880 5880 5880 5880 5880 5880 5880 5880 5879 5879 5878 5878 5877 5875 5874 5873 5871 5870 5868 5866 5864 5862 5860 5858 5856 5854 5852 5850 5848 5847 5846
5847 5850 5853 5856 5859 5862 5864 5867 5869 5870 5872 5874 5875 5876 5876 5877 5877 5878 5879 5879 5879 5880 5880 5880 5880 5879 5879 5879 5878 5877 5876 5875 5874 5872 5871 5869 5867 5865 5863 5861 5859 5856 5854 5852 5850 5848 5846 5845 5843
5846 5849 5852 5855 5858 5861 5864 5866 5868 5869 5871 5872 5874 5875 5875 5876 5877 5878 5878 5879 5879 5879 5879 5879 5879 5879 5879 5878 5878 5877 5876 5874 5873 5872 5870 5868 5866 5864 5862 5860 5857 5855 5852 5850 5848 5846 5844 5842 5841
5845 5848 5851 5855 5857 5860 5863 5865 5867 5869 5870 5871 5873 5874 5875 5876 5876 5877 5878 5878 5878 5879 5879 5879 5879 5879 5878 5878 5877 5876 5875 5874 5873 5871 5869 5868 5866 5863 5861 5859 5856 5854 5851 5848 5846 5844 5842 5840 5838
5844 5848 5851 5854 5856 5859 5862 5864 5866 5868 5869 5871 5872 5873 5874 5875 5876 5876 5877 5877 5878 5878 5878 5878 5878 5878 5878 5878 5877 5876 5874 5873 5872 5870 5869 5867 5865 5862 5860 5858 5855 5853 5850 5847 5844 5842 5840 5838 5836
5843 5847 5851 5854 5856 5858 5862 5863 5865 5867 5869 5870 5871 5872 5874 5874 5875 5876 5877 5877 5877 5878 5878 5878 5878 5878 5877 5877 5876 5875 5874 5873 5871 5870 5868 5866 5864 5862 5859 5857 5854 5852 5849 5846 5843 5840 5838 5836 5834
5843 5847 5850 5853 5855 5857 5860 5862 5864 5866 5867 5869 5870 5872 5873 5874 5874 5875 5876 5877 5877 5877 5877 5877 5877 5877 5877 5876 5875 5875 5873 5872 5870 5869 5867 5865 5863 5861 5858 5856 5853 5851 5848 5845 5842 5839 5836 5834 5832
5844 5847 5850 5853 5855 5857 5859 5861 5863 5865 5867 5868 5869 5871 5872 5873 5874 5874 5875 5876 5876 5876 5877 5877 5877 5877 5876 5876 5875 5874 5873 5871 5870 5868 5866 5864 5862 5860 5858 5855 5852 5850 5847 5844 5840 5837 5834 5832 5830
5844 5847 5850 5853 5855 5857 5859 5861 5863 5864 5866 5867 5869 5870 5871 5872 5873 5873 5874 5875 5875 5876 5876 5876 5876 5876 5876 5875 5874 5873 5872 5871 5869 5867 5865 5863 5861 5859 5856 5854 5851 5848 5845 5842 5839 5836 5833 5831 5828
5844 5847 5850 5853 5855 5857 5858 5860 5862 5864 5865 5866 5868 5869 5870 5871 5872 5872 5873 5874 5875 5875 5875 5876 5876 5876 5875 5874 5874 5873 5872 5870 5868 5866 5864 5862 5860 5858 5855 5853 5850 5847 5844 5841 5838 5835 5832 5830 5827
5844 5848 5850 5853 5855 5857 5859 5860 5862 5863 5864 5866 5867 5868 5869 5870 5870 5871 5872 5873 5874 5874 5875 5875 5875 5875 5874 5874 5873 5872 5871 5869 5867 5866 5864 5861 5859 5857 5854 5851 5848 5845 5842 5839 5836 5834 5831 5828 5826
5845 5848 5850 5852 5855 5856 5859 5860 5862 5862 5864 5864 5866 5867 5868 5869 5870 5871 5871 5872 5873 5873 5874 5874 5874 5874 5873 5873 5872 5871 5870 5868 5866 5865 5863 5860 5858 5855 5853 5850 5847 5844 5841 5838 5835 5832 5829 5826 5824
5845 5848 5850 5852 5854 5856 5858 5860 5862 5862 5863 5864 5865 5866 5867 5868 5869 5869 5870 5871 5872 5872 5873 5873 5873 5873 5873 5872 5871 5870 5869 5867 5865 5864 5862 5859 5856 5854 5851 5848 5845 5842 5839 5836 5833 5830 5827 5824 5822
5846 5849 5850 5852 5854 5856 5858 5859 5861 5861 5862 5863 5864 5865 5866 5867 5867 5868 5869 5870 5870 5871 5871 5872 5872 5872 5871 5871 5870 5869 5868 5866 5864 5862 5860 5858 5855 5852 5849 5846 5843 5840 5837 5834 5831 5828 5825 5822 5820
5847 5850 5852 5853 5854 5856 5857 5858 5861 5861 5861 5862 5863 5864 5864 5865 5866 5867 5868 5869 5869 5870 5870 5871 5871 5870 5870 5869 5868 5867 5866 5864 5862 5860 5858 5856 5853 5850 5847 5844 5841 5838 5834 5831 5828 5825 5822 5820 5817
5847 5850 5853 5854 5855 5856 5857 5858 5860 5860 5860 5861 5862 5863 5863 5864 5865 5866 5867 5867 5868 5868 5869 5869 5869 5868 5868 5867 5866 5865 5864 5862 5860 5858 5856 5854 5851 5848 5845 5842 5839 5835 5832 5828 5825 5822 5819 5816 5814
5847 5849 5851 5853 5854 5855 5856 5858 5859 5859 5859 5860 5861 5861 5862 5863 5864 5864 5865 5866 5866 5867 5867 5867 5867 5866 5866 5865 5864 5863 5862 5860 5858 5856 5853 5851 5848 5845 5842 5839 5836 5832 5828 5825 5822 5819 5815 5813 5810
5847 5849 5850 5852 5853 5854 5855 5857 5858 5858 5858 5859 5860 5860 5861 5861 5862 5863 5863 5864 5864 5864 5865 5864 5864 5864 5863 5862 5861 5860 5858 5857 5855 5852 5850 5848 5845 5842 5839 5836 5832 5828 5825 5821 5818 5814 5811 5808 5806
5847 5849 5849 5850 5852 5853 5854 5858 5857 5857 5857 5858 5858 5859 5859 5860 5860 5861 5861 5861 5862 5862 5862 5862 5861 5861 5860 5859 5858 5856 5855 5853 5851 5849 5847 5844 5841 5838 5835 5832 5828 5824 5820 5816 5813 5809 5806 5803 5800
5845 5847 5848 5850 5851 5851 5852 5857 5855 5855 5855 5856 5857 5857 5857 5858 5858 5858 5858 5859 5859 5859 5859 5858 5858 5857 5856 5855 5854 5853 5851 5849 5847 5845 5842 5840 5837 5834 5831 5827 5823 5819 5815 5811 5807 5803 5800 5797 5794